DLR82 EGPF-CYHZ

Flight info

Callsign DLR82
Flight time N/A
Altitude 40000
Route NORBO L186 TRN N562 MAC/N0455F380 DCT LUTOV/N0459F400 DCT RESNO/M081F400 DCT 55N020W 55N030W 54N040W 52N050W DCT TUDEP/N0461F400 DCT CAYLY CABOT5
Aircraft B738/M-SDE2E3FGHIRWXY/LB1

Departure

Time N/A
Airport Glasgow Airport (EGPF)

Arrival

Time 2025-12-30 02:53
Airport Halifax / Stanfield International Airport (CYHZ)
Time Latitude Longitude Altitude Speed Heading
2025-12-29 21:31 55.42631 -5.73991 27676 ft 459 kts 267°
2025-12-29 21:33 55.41823 -6.07026 30893 ft 447 kts 268°
2025-12-29 21:35 55.40288 -6.55893 34549 ft 442 kts 267°
2025-12-29 21:37 55.38972 -6.93533 36744 ft 441 kts 266°
2025-12-29 21:39 55.37114 -7.41780 39131 ft 445 kts 266°
2025-12-29 21:41 55.35528 -7.79470 40571 ft 442 kts 266°
2025-12-29 21:43 55.33311 -8.28093 40588 ft 445 kts 265°
2025-12-29 21:45 55.31441 -8.66092 40579 ft 447 kts 265°
2025-12-29 21:47 55.29166 -9.09380 40582 ft 449 kts 264°
2025-12-29 21:49 55.26715 -9.53006 40578 ft 450 kts 264°
2025-12-29 21:51 55.24105 -9.96685 40577 ft 451 kts 263°
2025-12-29 21:53 55.22785 -10.38607 40571 ft 452 kts 267°
2025-12-29 21:55 55.21377 -10.82561 40565 ft 453 kts 266°
2025-12-29 21:57 55.19811 -11.26396 40562 ft 454 kts 265°
2025-12-29 21:59 55.18074 -11.70544 40558 ft 454 kts 265°
2025-12-29 22:01 55.16186 -12.14446 40555 ft 454 kts 265°
2025-12-29 22:03 55.14132 -12.58526 40555 ft 456 kts 265°
2025-12-29 22:05 55.11917 -13.02545 40551 ft 457 kts 264°
2025-12-29 22:07 55.09532 -13.46751 40553 ft 458 kts 264°
2025-12-29 22:09 55.06984 -13.90957 40547 ft 458 kts 263°
2025-12-29 22:11 55.04285 -14.34940 40553 ft 458 kts 263°
2025-12-29 22:13 55.01415 -14.79084 40553 ft 459 kts 262°
2025-12-29 22:15 55.00382 -15.23262 40555 ft 460 kts 272°
2025-12-29 22:17 55.01199 -15.67799 40544 ft 460 kts 270°
2025-12-29 22:19 55.01780 -16.12260 40554 ft 461 kts 270°
2025-12-29 22:21 55.02204 -16.56901 40541 ft 461 kts 269°
2025-12-29 22:23 55.02463 -17.01355 40549 ft 461 kts 269°
2025-12-29 22:25 55.02558 -17.45978 40542 ft 460 kts 269°
2025-12-29 22:27 55.02495 -17.90571 40554 ft 461 kts 268°
2025-12-29 22:28 55.02302 -18.29487 40544 ft 461 kts 268°
2025-12-29 22:31 55.01868 -18.79854 40549 ft 461 kts 267°
2025-12-29 22:32 55.01391 -19.18780 40548 ft 462 kts 267°
2025-12-29 22:35 55.00594 -19.69033 40541 ft 461 kts 267°
2025-12-29 22:36 55.00170 -20.07939 40553 ft 461 kts 273°
2025-12-29 22:39 55.02248 -20.58061 40542 ft 461 kts 272°
2025-12-29 22:40 55.03598 -20.97030 40545 ft 460 kts 273°
2025-12-29 22:43 55.05146 -21.46925 40547 ft 460 kts 272°
2025-12-29 22:45 55.06304 -21.89543 40551 ft 459 kts 272°
2025-12-29 22:47 55.07472 -22.39421 40550 ft 459 kts 272°
2025-12-29 22:49 55.08241 -22.78331 40552 ft 458 kts 272°
2025-12-29 22:51 55.09045 -23.28203 40556 ft 458 kts 271°
2025-12-29 22:53 55.09530 -23.67060 40552 ft 458 kts 271°
2025-12-29 22:55 55.09970 -24.16782 40558 ft 457 kts 271°
2025-12-29 22:57 55.10173 -24.55490 40554 ft 455 kts 271°
2025-12-29 22:59 55.10252 -25.04922 40550 ft 454 kts 270°
2025-12-29 23:01 55.10176 -25.43489 40555 ft 454 kts 270°
2025-12-29 23:03 55.09939 -25.87557 40551 ft 454 kts 270°
2025-12-29 23:05 55.09546 -26.31445 40557 ft 453 kts 270°
2025-12-29 23:07 55.08993 -26.75410 40555 ft 453 kts 270°
2025-12-29 23:09 55.08286 -27.19132 40557 ft 452 kts 270°
2025-12-29 23:11 55.07423 -27.62819 40558 ft 448 kts 270°
2025-12-29 23:13 55.06415 -28.06038 40554 ft 446 kts 270°
2025-12-29 23:15 55.05254 -28.49238 40558 ft 446 kts 269°
2025-12-29 23:17 55.03946 -28.92253 40559 ft 445 kts 269°
2025-12-29 23:19 55.02491 -29.35092 40558 ft 445 kts 269°
2025-12-29 23:21 55.00876 -29.78165 40550 ft 444 kts 269°
2025-12-29 23:23 54.98822 -30.20829 40564 ft 444 kts 266°
2025-12-29 23:24 54.96535 -30.58220 40561 ft 443 kts 266°
2025-12-29 23:27 54.93491 -31.05920 40559 ft 442 kts 266°
2025-12-29 23:28 54.90991 -31.42993 40558 ft 442 kts 266°
2025-12-29 23:31 54.87620 -31.90473 40560 ft 440 kts 266°
2025-12-29 23:32 54.84893 -32.27050 40551 ft 438 kts 266°
2025-12-29 23:35 54.80803 -32.79268 40545 ft 436 kts 266°
2025-12-29 23:37 54.77829 -33.15483 40551 ft 435 kts 265°
2025-12-29 23:39 54.74012 -33.60089 40541 ft 431 kts 265°
2025-12-29 23:41 54.70823 -33.95905 40528 ft 428 kts 265°
2025-12-29 23:43 54.67097 -34.36272 40526 ft 426 kts 265°
2025-12-29 23:45 54.63244 -34.76477 40526 ft 423 kts 265°
2025-12-29 23:47 54.59287 -35.16339 40518 ft 424 kts 264°
2025-12-29 23:49 54.55177 -35.56321 40504 ft 423 kts 264°
2025-12-29 23:51 54.50955 -35.96040 40491 ft 422 kts 263°
2025-12-29 23:53 54.46622 -36.35515 40486 ft 421 kts 262°
2025-12-29 23:55 54.42150 -36.74997 40467 ft 421 kts 262°
2025-12-29 23:57 54.37561 -37.14286 40453 ft 422 kts 261°
2025-12-29 23:59 54.32832 -37.53598 40432 ft 421 kts 261°
2025-12-30 00:01 54.27985 -37.92737 40426 ft 420 kts 260°
2025-12-30 00:03 54.23055 -38.31452 40406 ft 417 kts 259°
2025-12-30 00:05 54.18000 -38.70084 40385 ft 416 kts 259°
2025-12-30 00:07 54.12850 -39.08411 40374 ft 417 kts 258°
2025-12-30 00:09 54.07543 -39.46898 40347 ft 418 kts 257°
2025-12-30 00:11 54.02104 -39.85363 40334 ft 418 kts 256°
2025-12-30 00:13 53.96435 -40.23550 40318 ft 419 kts 255°
2025-12-30 00:15 53.89783 -40.66558 40304 ft 418 kts 254°
2025-12-30 00:17 53.84523 -40.99824 40285 ft 418 kts 254°
2025-12-30 00:19 53.78429 -41.37551 40262 ft 416 kts 253°
2025-12-30 00:21 53.72224 -41.75129 40240 ft 414 kts 252°
2025-12-30 00:23 53.65954 -42.12286 40221 ft 414 kts 251°
2025-12-30 00:24 53.60348 -42.44860 40207 ft 413 kts 251°
2025-12-30 00:27 53.53013 -42.86588 40183 ft 415 kts 250°
2025-12-30 00:28 53.47213 -43.18925 40167 ft 415 kts 249°
2025-12-30 00:31 53.39023 -43.63627 40139 ft 415 kts 249°
2025-12-30 00:33 53.32991 -43.95879 40128 ft 415 kts 248°
2025-12-30 00:35 53.26010 -44.32525 40105 ft 414 kts 247°
2025-12-30 00:37 53.18918 -44.69052 40078 ft 414 kts 247°
2025-12-30 00:39 53.11750 -45.05271 40050 ft 414 kts 246°
2025-12-30 00:41 53.04438 -45.41539 40046 ft 414 kts 245°
2025-12-30 00:43 52.97005 -45.77741 40037 ft 415 kts 245°
2025-12-30 00:45 52.89460 -46.13831 40011 ft 416 kts 245°
2025-12-30 00:47 52.81779 -46.49915 39992 ft 417 kts 244°
2025-12-30 00:49 52.73972 -46.85948 39969 ft 418 kts 244°
2025-12-30 00:50 52.67046 -47.17404 39952 ft 420 kts 244°
2025-12-30 00:52 52.58941 -47.53611 39932 ft 422 kts 243°
2025-12-30 00:55 52.49684 -47.94220 39912 ft 423 kts 243°
2025-12-30 00:56 52.42391 -48.25674 39898 ft 426 kts 243°
2025-12-30 00:59 52.32768 -48.66484 39867 ft 428 kts 243°
2025-12-30 01:00 52.25149 -48.98253 39854 ft 430 kts 243°
2025-12-30 01:03 52.14071 -49.43643 39834 ft 436 kts 242°
2025-12-30 01:05 52.06097 -49.75750 39823 ft 439 kts 242°
2025-12-30 01:07 51.95856 -50.17121 39808 ft 443 kts 243°
2025-12-30 01:09 51.87950 -50.49737 39794 ft 447 kts 243°
2025-12-30 01:11 51.77567 -50.91727 39777 ft 447 kts 243°
2025-12-30 01:13 51.69398 -51.24208 39776 ft 450 kts 243°
2025-12-30 01:15 51.59850 -51.61593 39762 ft 454 kts 244°
2025-12-30 01:17 51.50091 -51.99176 39751 ft 457 kts 244°
2025-12-30 01:19 51.40208 -52.36609 39718 ft 458 kts 243°
2025-12-30 01:21 51.30120 -52.74205 39715 ft 461 kts 244°
2025-12-30 01:23 51.19836 -53.11476 39698 ft 463 kts 245°
2025-12-30 01:25 51.06296 -53.43476 39717 ft 459 kts 228°
2025-12-30 01:27 50.89935 -53.74746 39719 ft 464 kts 227°
2025-12-30 01:29 50.73349 -54.06128 39731 ft 468 kts 227°
2025-12-30 01:31 50.54617 -54.41118 39722 ft 454 kts 229°
2025-12-30 01:33 50.40375 -54.67405 39735 ft 452 kts 228°
2025-12-30 01:35 50.23904 -54.97485 39743 ft 458 kts 227°
2025-12-30 01:36 50.09346 -55.23773 39751 ft 461 kts 228°
2025-12-30 01:39 49.90429 -55.57551 39761 ft 459 kts 229°
2025-12-30 01:40 49.75765 -55.83433 39764 ft 456 kts 229°
2025-12-30 01:43 49.54937 -56.19754 39772 ft 453 kts 230°
2025-12-30 01:44 49.42347 -56.41463 39766 ft 454 kts 230°
2025-12-30 01:47 49.23542 -56.73554 39775 ft 446 kts 231°
2025-12-30 01:48 49.09077 -56.97973 39769 ft 442 kts 231°
2025-12-30 01:51 48.90506 -57.28993 39753 ft 443 kts 231°
2025-12-30 01:52 48.75910 -57.53115 39753 ft 444 kts 231°
2025-12-30 01:55 48.54967 -57.87340 39737 ft 444 kts 231°
2025-12-30 01:57 48.40186 -58.11229 39711 ft 448 kts 231°
2025-12-30 01:59 48.20911 -58.42051 39709 ft 449 kts 231°
2025-12-30 02:01 48.05930 -58.65758 39713 ft 447 kts 231°
2025-12-30 02:03 47.88866 -58.92503 39705 ft 441 kts 231°
2025-12-30 02:05 47.72111 -59.18500 39692 ft 433 kts 231°
2025-12-30 02:07 47.55606 -59.43856 39681 ft 424 kts 231°
2025-12-30 02:09 47.39244 -59.68756 39670 ft 422 kts 230°
2025-12-30 02:11 47.22850 -59.93469 39665 ft 421 kts 230°
2025-12-30 02:13 47.07224 -60.16807 39662 ft 418 kts 230°
2025-12-30 02:15 46.90877 -60.41002 39656 ft 418 kts 230°
2025-12-30 02:17 46.74517 -60.64995 39635 ft 416 kts 230°
2025-12-30 02:19 46.58175 -60.88744 39592 ft 414 kts 230°
2025-12-30 02:20 46.44030 -61.09126 39584 ft 409 kts 229°
2025-12-30 02:23 46.26063 -61.34794 39572 ft 400 kts 229°
2025-12-30 02:25 46.10270 -61.57151 39554 ft 397 kts 229°
2025-12-30 02:27 45.93066 -61.81288 37612 ft 378 kts 229°
2025-12-30 02:29 45.79910 -61.99605 35745 ft 379 kts 229°
2025-12-30 02:31 45.62717 -62.23348 33540 ft 385 kts 228°
2025-12-30 02:33 45.50279 -62.43405 27378 ft 392 kts 231°
2025-12-30 02:33 45.44843 -62.52219 24279 ft 409 kts 230°
2025-12-30 02:34 45.41075 -62.58301 22135 ft 409 kts 230°
2025-12-30 02:34 45.39200 -62.61320 21066 ft 404 kts 229°
2025-12-30 02:35 45.33731 -62.70112 18259 ft 388 kts 229°
2025-12-30 02:35 45.31946 -62.72975 17381 ft 384 kts 229°
2025-12-30 02:36 45.28515 -62.78476 15957 ft 366 kts 228°
2025-12-30 02:36 45.25178 -62.83817 14241 ft 358 kts 228°
2025-12-30 02:37 45.21888 -62.89071 12446 ft 354 kts 227°
2025-12-30 02:37 45.18761 -62.94313 11032 ft 338 kts 233°
2025-12-30 02:38 45.15282 -63.01945 10507 ft 286 kts 234°
2025-12-30 02:38 45.13235 -63.06455 10285 ft 259 kts 233°
2025-12-30 02:39 45.12549 -63.08766 10137 ft 257 kts 252°
2025-12-30 02:39 45.11979 -63.13733 9431 ft 256 kts 253°
2025-12-30 02:40 45.11414 -63.18679 8634 ft 253 kts 252°
2025-12-30 02:40 45.10832 -63.23584 7805 ft 253 kts 252°
2025-12-30 02:41 45.10255 -63.28467 7085 ft 251 kts 252°
2025-12-30 02:41 45.09395 -63.35641 6240 ft 241 kts 252°
2025-12-30 02:42 45.09112 -63.37979 5940 ft 241 kts 251°
2025-12-30 02:42 45.08547 -63.42622 5276 ft 240 kts 251°
2025-12-30 02:43 45.07977 -63.47289 4565 ft 241 kts 251°
2025-12-30 02:43 45.07409 -63.51945 4044 ft 236 kts 250°
2025-12-30 02:44 45.06871 -63.56365 4004 ft 225 kts 249°
2025-12-30 02:44 45.06326 -63.60756 3981 ft 228 kts 249°
2025-12-30 02:45 45.05331 -63.64794 3953 ft 203 kts 220°
2025-12-30 02:45 45.02412 -63.67920 3490 ft 159 kts 206°
2025-12-30 02:46 45.01515 -63.68793 3146 ft 158 kts 204°
2025-12-30 02:46 44.98762 -63.68728 2970 ft 150 kts 150°
2025-12-30 02:47 44.97910 -63.67899 2951 ft 148 kts 150°
2025-12-30 02:47 44.96442 -63.65740 2913 ft 156 kts 141°
2025-12-30 02:48 44.95149 -63.63320 2557 ft 141 kts 136°
2025-12-30 02:48 44.94197 -63.61412 2221 ft 97 kts 137°
2025-12-30 02:48 44.93842 -63.60701 2129 ft 85 kts 136°
2025-12-30 02:49 44.92861 -63.58757 1803 ft 78 kts 133°
2025-12-30 02:50 44.92214 -63.57451 1569 ft 84 kts 130°
2025-12-30 02:50 44.91517 -63.56011 1282 ft 96 kts 128°
2025-12-30 02:51 44.90708 -63.54441 957 ft 99 kts 123°
2025-12-30 02:51 44.89909 -63.52819 686 ft 102 kts 124°
2025-12-30 02:52 44.89078 -63.51140 455 ft 95 kts 124°
2025-12-30 02:52 44.88694 -63.50381 456 ft 29 kts 126°
2025-12-30 02:52 44.88582 -63.50155 455 ft 27 kts 125°
2025-12-30 02:53 44.88345 -63.49867 459 ft 9 kts 216°
2025-12-30 02:54 44.88320 -63.50061 458 ft 8 kts 304°
2025-12-30 02:54 44.88352 -63.50126 458 ft 8 kts 305°
2025-12-30 02:55 44.88360 -63.50355 457 ft 21 kts 263°
2025-12-30 02:55 44.88325 -63.50794 457 ft 22 kts 262°
2025-12-30 02:56 44.88403 -63.51179 456 ft 21 kts 320°
2025-12-30 02:56 44.88648 -63.51279 456 ft 9 kts 285°
2025-12-30 02:57 44.88641 -63.51368 456 ft 0 kts 261°